Wind_Speed
7 7 6 6 5 4 4 3 3 2 2 2 2 2 2 3 3 3 4 4 5 5 5 5 6 6 7 8 9 9 9 9 9 10 10 10 10 11 11 11 11 11 11
6 6 6 5 4 4 3 3 2 2 2 2 2 2 2 2 3 3 3 4 4 5 5 6 6 7 8 9 9 10 10 10 10 10 10 11 11 12 12 11 12 12 12
6 5 5 4 3 3 2 2 1 1 1 1 2 2 2 1 1 2 3 4 5 5 5 6 7 8 8 9 9 10 11 11 12 12 12 12 12 12 12 12 12 12 12
5 5 5 4 3 2 2 2 2 1 0 1 1 2 2 2 2 2 3 4 5 5 5 6 7 8 8 9 10 10 11 11 12 12 12 13 13 13 13 13 13 12 12
4 4 4 4 4 4 3 2 2 1 1 1 1 2 3 3 3 3 4 5 6 6 6 7 7 8 8 9 10 10 11 12 13 13 13 13 13 13 13 12 12 12 12
3 3 4 4 4 4 3 2 1 1 1 2 2 3 4 4 4 5 5 6 6 7 7 7 7 8 9 9 10 10 11 12 13 13 13 13 13 13 13 13 13 13 13
4 4 4 4 4 4 3 3 2 3 2 3 3 3 4 4 5 6 6 6 6 7 7 8 8 8 9 9 10 11 11 12 13 13 13 13 13 13 13 13 13 12 13
3 3 3 4 3 3 3 3 3 3 3 3 3 3 4 4 5 6 7 7 7 7 8 8 8 9 10 11 11 11 12 13 13 13 13 13 13 14 13 12 12 13 14
3 3 3 3 4 4 4 4 3 3 3 4 4 4 4 5 6 6 7 7 8 8 8 9 9 10 11 11 12 13 13 13 14 14 14 14 15 15 14 13 13 14 13
3 4 4 4 4 4 4 5 4 4 4 5 5 5 6 6 6 6 7 7 8 8 9 10 11 12 12 13 13 14 14 14 14 15 15 15 14 14 15 15 14 13 12
5 5 6 5 5 5 5 6 5 5 5 5 6 6 7 7 7 8 8 9 9 10 11 11 12 13 14 14 14 15 15 16 16 16 16 15 15 14 15 15 14 13 13
6 7 7 7 6 6 7 7 6 6 6 7 7 7 8 8 9 9 10 10 11 12 13 13 14 15 15 15 16 16 17 17 17 17 16 16 15 15 16 16 15 14 14
8 8 8 8 8 9 8 8 8 8 8 8 9 9 10 10 10 10 11 11 12 13 14 15 15 16 17 17 17 17 17 17 17 18 18 17 17 17 17 17 17 16 16
10 10 10 10 10 10 10 10 9 10 10 10 11 11 12 12 12 13 13 14 14 14 15 16 17 18 19 19 19 19 19 18 18 19 19 19 19 19 19 18 18 18 18
12 12 11 11 12 12 12 12 11 12 12 13 13 13 14 14 15 15 16 17 17 17 18 18 19 20 21 21 21 20 21 21 20 20 21 21 21 20 20 20 20 20 20
13 13 13 13 13 13 14 13 14 14 14 15 15 16 16 16 17 17 18 18 19 20 20 21 21 22 23 22 22 22 23 23 23 23 23 23 23 22 21 22 22 22 22
14 15 14 14 14 14 14 14 15 16 16 17 17 17 18 18 19 19 20 20 21 22 22 23 22 23 23 22 23 24 24 25 25 25 25 25 24 24 23 23 23 23 23
16 16 16 16 16 16 16 17 17 18 18 18 19 19 20 20 21 22 22 23 23 24 24 24 24 24 24 24 25 25 25 26 26 26 26 26 25 25 24 24 24 24 24
18 18 18 18 18 17 18 19 19 20 20 21 21 21 22 23 23 24 25 25 25 25 25 25 25 26 26 26 27 27 27 27 27 27 27 26 26 26 25 25 25 25 25
20 20 19 19 20 20 21 21 21 22 22 23 23 23 24 25 25 26 26 26 26 26 26 27 27 28 28 27 27 27 28 28 28 28 28 28 27 27 26 26 27 27 26
23 22 22 22 22 22 23 23 23 23 24 24 25 26 26 26 26 26 26 27 27 27 28 28 28 29 29 28 28 28 28 29 29 29 29 28 28 28 28 27 26 27 27
25 25 25 24 24 23 23 24 24 25 25 25 25 25 25 26 26 27 27 27 28 29 29 29 30 30 30 29 30 29 30 30 29 29 29 28 28 29 28 28 27 26 26
25 25 25 24 24 24 25 25 26 26 26 26 26 26 27 27 28 28 29 29 29 30 30 30 30 30 30 30 29 29 30 30 30 30 29 28 29 28 27 27 27 27 27
27 27 27 27 27 26 27 27 27 28 28 28 28 28 28 28 29 30 30 30 30 30 31 31 30 30 30 30 30 29 30 30 30 30 30 29 28 28 29 29 28 27 27
29 29 29 29 29 28 28 29 29 30 30 30 30 30 30 31 31 32 31 31 31 31 30 30 30 30 30 31 30 30 30 30 30 29 29 29 29 29 29 29 28 29 28
31 31 31 30 30 30 30 30 31 31 31 31 31 32 32 32 32 33 33 32 32 32 31 30 30 30 30 30 31 31 31 30 30 30 30 30 30 30 29 29 28 28 29
Wind_Direction
102 110 113 113 112 111 115 127 137 142 168 191 212 227 239 249 253 263 269 278 282 284 282 287 293 292 292 295 295 297 295 293 291 287 286 286 287 282 279 279 279 277 278
93 95 101 106 106 113 119 118 126 139 152 187 218 239 256 265 265 275 285 293 297 302 299 296 296 297 297 295 295 296 296 294 295 290 286 287 289 285 280 277 277 277 276
88 90 93 98 96 108 121 100 99 135 175 203 216 230 256 265 286 302 305 306 303 310 315 312 301 298 297 295 295 298 297 295 294 290 286 288 289 290 289 283 278 279 277
91 93 87 84 87 98 102 91 81 76 289 228 223 241 270 283 310 324 321 320 317 318 315 313 310 311 305 297 295 297 298 298 298 293 291 288 289 291 288 285 283 281 282
89 98 92 77 72 69 91 101 79 58 19 292 265 276 280 285 309 325 321 314 315 318 320 319 315 316 318 314 308 305 303 302 301 297 292 289 291 290 290 287 284 279 281
70 80 80 70 66 67 67 64 43 4 322 310 293 289 286 282 302 304 306 308 311 309 310 319 319 321 324 319 316 314 309 304 302 299 296 292 291 290 290 288 283 279 277
54 63 60 49 46 47 40 35 19 7 333 310 308 312 298 298 301 302 300 301 304 307 310 315 317 323 324 325 324 320 314 309 305 302 301 299 297 295 291 284 283 282 279
27 35 39 32 22 17 14 10 20 18 351 339 323 305 312 305 305 305 301 301 301 303 308 312 314 315 318 320 323 323 319 314 311 308 306 302 298 297 297 296 292 284 281
356 352 359 4 0 356 346 338 340 337 326 328 328 317 314 308 308 307 305 302 302 305 309 311 314 315 314 314 318 317 318 317 312 306 307 306 302 299 299 296 292 292 285
326 327 323 330 334 332 328 326 320 320 314 315 315 318 321 320 313 304 308 307 306 307 309 309 310 312 314 311 312 311 312 312 312 308 308 307 307 304 300 298 293 292 290
308 309 307 308 316 317 319 320 318 314 313 311 309 309 314 317 317 312 311 311 308 309 311 311 312 312 312 310 309 310 310 310 309 306 306 306 304 302 299 296 294 293 293
295 298 299 299 298 300 302 303 303 308 309 306 304 306 309 310 310 308 306 308 311 309 308 309 310 310 309 309 309 309 308 309 307 305 307 305 301 298 295 291 289 287 290
292 295 296 293 290 291 292 294 296 299 302 304 306 307 307 306 300 299 301 303 306 307 307 307 308 308 307 306 306 305 305 304 306 305 303 300 298 295 292 287 285 283 285
288 291 290 288 288 288 288 290 293 294 299 302 304 304 304 303 301 298 298 298 300 302 304 304 304 306 306 304 302 303 303 305 304 301 300 298 295 294 292 288 284 282 284
289 287 287 287 286 287 286 286 288 292 295 298 299 300 299 297 297 298 298 298 299 301 301 302 302 302 302 302 302 302 302 303 301 300 299 297 294 291 290 289 286 284 283
287 288 285 285 284 285 286 284 284 287 290 291 292 293 294 293 293 296 297 298 300 300 300 300 300 301 302 303 304 303 301 300 299 298 298 295 293 290 289 288 285 283 283
285 286 286 286 286 286 285 284 284 286 288 289 290 290 291 292 292 292 294 297 299 300 300 301 302 302 304 303 303 303 302 302 299 297 297 296 295 292 291 289 286 285 285
285 285 286 286 286 286 284 282 282 283 285 286 288 290 290 291 292 292 293 294 295 297 299 301 301 301 302 301 301 301 300 300 298 297 296 294 294 293 291 288 286 286 285
284 284 284 284 284 284 284 282 281 282 283 285 286 288 289 290 291 291 292 292 293 294 297 300 300 300 300 300 299 299 298 298 297 297 296 294 293 292 289 287 286 287 285
283 284 283 283 282 281 281 282 282 283 283 285 285 286 288 289 291 290 291 291 293 294 295 297 298 299 300 299 299 298 298 298 298 297 295 294 292 291 290 286 285 287 287
282 283 283 284 283 281 281 281 282 283 283 284 285 285 285 288 290 291 292 292 292 293 294 296 297 298 299 298 298 298 298 299 299 299 296 293 292 291 289 286 285 286 286
281 281 282 282 283 283 284 283 283 282 284 285 286 285 286 289 291 292 292 292 293 293 294 294 295 296 298 297 296 296 296 297 298 297 296 294 293 293 290 285 285 285 284
280 280 281 281 282 283 284 284 285 285 285 287 288 287 287 288 290 291 292 292 291 291 292 293 294 295 296 298 297 297 296 296 296 296 295 295 294 291 288 287 284 284 283
278 279 280 280 280 281 282 282 283 283 284 285 286 286 286 286 288 290 291 292 291 291 292 293 292 293 296 298 298 297 297 296 296 296 294 293 293 291 289 287 286 283 282
278 278 279 279 279 280 281 281 282 282 283 284 284 285 285 286 287 288 290 292 292 292 293 292 292 293 296 297 297 296 296 295 296 296 293 292 291 292 291 289 286 284 283
277 277 277 278 278 278 279 280 281 282 282 283 285 286 287 287 287 287 288 290 291 291 292 291 291 293 295 297 297 296 295 294 295 295 293 291 290 290 289 288 287 285 283
Height
5890 5889 5889 5890 5890 5890 5890 5890 5890 5890 5890 5890 5890 5890 5890 5890 5890 5890 5890 5890 5889 5889 5889 5888 5888 5887 5886 5886 5885 5884 5883 5882 5881 5880 5880 5879 5878 5877 5876 5876 5875 5874 5874
5891 5891 5891 5891 5891 5890 5890 5890 5890 5890 5890 5890 5890 5890 5890 5890 5890 5890 5889 5889 5889 5888 5887 5887 5886 5886 5885 5884 5883 5882 5881 5880 5879 5878 5877 5877 5876 5875 5874 5873 5872 5872 5871
5893 5893 5892 5892 5891 5891 5891 5890 5890 5890 5890 5890 5889 5890 5890 5890 5890 5889 5889 5888 5887 5887 5887 5886 5885 5884 5883 5882 5881 5880 5879 5878 5877 5876 5875 5874 5873 5872 5871 5870 5869 5869 5868
5894 5894 5893 5892 5892 5891 5891 5891 5890 5890 5890 5889 5889 5889 5889 5889 5889 5889 5888 5887 5887 5886 5886 5885 5884 5882 5881 5880 5879 5878 5877 5876 5875 5873 5872 5871 5870 5869 5868 5867 5867 5866 5865
5895 5894 5894 5893 5892 5892 5891 5891 5891 5890 5890 5889 5889 5889 5889 5888 5888 5888 5887 5887 5886 5885 5884 5883 5882 5881 5880 5878 5877 5876 5874 5873 5872 5871 5869 5868 5867 5866 5865 5864 5863 5862 5862
5896 5895 5895 5894 5893 5892 5892 5891 5891 5890 5889 5889 5889 5888 5888 5887 5887 5887 5886 5886 5885 5884 5883 5882 5881 5879 5878 5876 5875 5873 5872 5870 5869 5868 5866 5865 5864 5863 5862 5861 5860 5860 5859
5896 5896 5895 5895 5894 5893 5892 5891 5891 5890 5889 5889 5888 5888 5887 5887 5886 5886 5885 5884 5883 5882 5881 5880 5879 5878 5876 5874 5873 5871 5869 5868 5866 5865 5864 5862 5861 5860 5859 5858 5857 5856 5856
5897 5896 5896 5895 5894 5893 5892 5892 5891 5890 5889 5888 5888 5887 5887 5887 5885 5884 5884 5883 5882 5881 5880 5878 5877 5876 5874 5873 5871 5869 5867 5865 5864 5862 5861 5859 5858 5857 5856 5855 5854 5853 5852
5897 5897 5896 5895 5894 5893 5892 5891 5890 5889 5889 5888 5887 5887 5886 5885 5884 5883 5882 5881 5880 5879 5878 5877 5875 5874 5872 5871 5869 5867 5865 5863 5861 5860 5858 5856 5855 5854 5852 5851 5850 5849 5848
5897 5896 5895 5895 5894 5892 5892 5890 5890 5889 5888 5887 5886 5885 5885 5884 5883 5882 5881 5879 5878 5877 5876 5875 5873 5872 5870 5868 5867 5864 5862 5860 5859 5857 5855 5853 5851 5850 5849 5848 5847 5845 5844
5896 5896 5895 5894 5893 5891 5891 5889 5888 5887 5887 5886 5885 5884 5883 5882 5881 5880 5879 5878 5877 5875 5874 5872 5871 5869 5867 5865 5864 5862 5860 5858 5856 5853 5852 5850 5848 5847 5845 5844 5843 5842 5841
5895 5894 5893 5892 5891 5890 5889 5888 5887 5886 5885 5884 5883 5883 5882 5881 5879 5878 5877 5876 5874 5873 5871 5870 5868 5866 5864 5862 5860 5858 5856 5854 5852 5850 5848 5846 5845 5843 5841 5841 5839 5838 5837
5894 5893 5891 5890 5889 5889 5888 5887 5886 5885 5883 5882 5881 5880 5880 5878 5877 5876 5875 5873 5872 5870 5868 5867 5865 5863 5861 5859 5857 5855 5853 5851 5848 5846 5845 5843 5841 5840 5838 5836 5835 5834 5833
5892 5891 5890 5888 5887 5886 5885 5884 5884 5882 5881 5880 5879 5878 5877 5876 5875 5873 5872 5871 5869 5868 5865 5864 5861 5859 5857 5855 5853 5851 5848 5847 5844 5842 5840 5839 5837 5835 5834 5832 5831 5830 5829
5890 5889 5887 5886 5885 5884 5883 5882 5881 5880 5879 5878 5877 5876 5874 5873 5872 5870 5869 5867 5866 5864 5862 5860 5858 5855 5853 5851 5848 5846 5843 5842 5840 5838 5836 5834 5832 5830 5829 5827 5826 5824 5823
5886 5885 5884 5883 5882 5881 5880 5879 5878 5877 5876 5875 5873 5872 5871 5870 5868 5867 5865 5863 5861 5860 5858 5856 5853 5851 5848 5845 5843 5841 5838 5836 5834 5832 5830 5828 5826 5824 5823 5821 5820 5818 5817
5883 5882 5880 5879 5878 5877 5876 5875 5874 5873 5871 5870 5869 5868 5867 5865 5864 5862 5861 5859 5856 5854 5852 5850 5848 5845 5843 5840 5837 5835 5832 5830 5828 5826 5824 5822 5820 5818 5816 5815 5813 5812 5811
5879 5878 5876 5875 5874 5873 5872 5870 5869 5868 5867 5866 5864 5863 5862 5860 5859 5857 5855 5853 5851 5849 5847 5844 5842 5840 5837 5835 5832 5829 5826 5824 5821 5819 5817 5815 5813 5811 5810 5808 5807 5805 5804
5875 5873 5872 5870 5869 5868 5867 5865 5864 5863 5862 5860 5859 5858 5856 5854 5853 5851 5849 5847 5845 5843 5840 5838 5836 5834 5831 5828 5826 5823 5820 5817 5815 5812 5810 5808 5806 5804 5803 5801 5800 5798 5797
5870 5868 5867 5865 5864 5863 5861 5860 5859 5857 5856 5854 5853 5851 5850 5848 5846 5844 5842 5840 5838 5836 5834 5832 5829 5827 5825 5822 5819 5816 5814 5811 5808 5805 5803 5801 5799 5797 5795 5794 5793 5791 5790
5864 5863 5861 5859 5858 5856 5855 5854 5852 5851 5849 5848 5846 5845 5843 5841 5839 5837 5835 5833 5831 5829 5827 5825 5822 5820 5817 5815 5812 5809 5807 5804 5801 5798 5796 5794 5792 5790 5788 5786 5785 5783 5782
5858 5856 5855 5853 5851 5850 5849 5847 5845 5844 5842 5841 5839 5837 5836 5834 5832 5830 5828 5826 5824 5822 5820 5817 5815 5813 5810 5807 5805 5802 5799 5797 5794 5791 5788 5786 5784 5782 5780 5778 5777 5776 5774
5851 5849 5848 5846 5845 5843 5842 5840 5838 5837 5835 5834 5832 5830 5829 5827 5825 5823 5821 5819 5816 5814 5812 5810 5808 5805 5803 5800 5797 5794 5791 5789 5786 5784 5781 5779 5776 5774 5772 5770 5769 5767 5766
5843 5842 5840 5839 5837 5836 5835 5833 5831 5829 5828 5826 5824 5823 5821 5820 5818 5815 5813 5811 5808 5806 5803 5801 5800 5797 5794 5791 5789 5786 5783 5781 5779 5776 5773 5771 5769 5767 5764 5762 5761 5759 5758
5835 5834 5832 5831 5829 5828 5827 5825 5823 5821 5820 5818 5816 5815 5813 5811 5809 5807 5805 5802 5800 5797 5795 5793 5791 5788 5786 5783 5780 5778 5775 5772 5770 5768 5765 5763 5761 5758 5756 5755 5753 5751 5750
5826 5825 5823 5822 5821 5820 5818 5816 5814 5813 5811 5810 5808 5806 5804 5802 5800 5798 5795 5793 5791 5789 5786 5784 5782 5780 5777 5775 5772 5769 5766 5764 5761 5759 5757 5754 5752 5750 5748 5746 5744 5742 5741